Location: Sigmaringen
(48.0900°N, 9.2120°E)
Time: 23:08:03
(UTC+02:00)

Envisat - Visible Passes

Search period start: 24 May 2018 00:00
Search period end: 03 June 2018 00:00
Orbit: 764 x 766 km, 98.2° (Epoch: 24 May)

Date Brightness Start Highest point End Pass type
(mag) Time Alt. Az. Time Alt. Az. Time Alt. Az.
25 May 5.4 21:47:20 10° SW 21:51:11 22° W 21:55:05 10° NW visible
27 May 5.8 22:14:50 10° WSW 22:17:06 13° W 22:19:22 10° WNW visible
30 May 5.6 22:02:42 10° SW 22:05:47 16° W 22:08:54 10° NW visible
02 Jun 5.5 21:50:49 10° SW 21:54:30 20° W 21:58:12 10° NW visible
